Torna al catalogo

THORAD DELTA 1 DEB

AttivoLEO
NORAD 42602·DEBRIS·🇺🇸 United States

Lanciato Nov 15, 1974 da Vandenberg Space Force Base

Loading…

Prossimi Passaggi (prossime 24 ore)

TLE

ObsoletoSource: Space-Track

Epoca: Aug 24, 2026, 02:14 UTC

1 42602U 74089FT  26236.09339267  .00000410  00000-0  41121-2 0  9996
2 42602 101.4357 186.9554 0324650 341.0955  17.8271 12.11472978978330

Traccia THORAD DELTA 1 DEB in tempo reale con AllMySat

Download on the App Store